GW0305 Weather Reports


time (UTC)temp
F
wind
direction
speed
knots
gust
knots
rain 1hr
in
rain 24hr
in
rain mn
in
humidity
%
barometer
mb
20260508175557 58 225 6.1 14.8 0.00 0.00 0.00 33 1019.2
20260508175048 58 293 3.5 14.8 0.00 0.00 0.00 34 1019.1
20260508174537 58 248 8.7 15.6 0.00 0.00 0.00 33 1019.4
20260508173517 58 225 7.0 15.6 0.00 0.00 0.00 33 1019.1
20260508173007 58 248 7.0 15.6 0.00 0.00 0.00 34 1019.2
20260508172457 58 225 7.0 13.9 0.00 0.00 0.00 34 1019.4
20260508171947 58 225 3.5 17.4 0.00 0.00 0.00 34 1019.2
20260508171437 58 248 6.1 17.4 0.00 0.00 0.00 35 1019.1
20260508170927 58 180 7.0 14.8 0.00 0.00 0.00 34 1019.5
20260508170417 58 135 7.8 14.8 0.00 0.00 0.00 36 1019.1
20260508165906 57 203 6.1 14.8 0.00 0.00 0.00 37 1019.2
20260508164850 57 248 5.2 20.0 0.00 0.00 0.00 37 1019.3
20260508164340 57 270 7.0 20.0 0.00 0.00 0.00 37 1019.4
20260508163830 56 293 4.3 17.4 0.00 0.00 0.00 38 1019.4
20260508163321 57 293 7.0 21.7 0.00 0.00 0.00 38 1019.5
20260508162810 56 180 7.0 21.7 0.00 0.00 0.00 38 1019.6
20260508162300 56 270 5.2 13.9 0.00 0.00 0.00 39 1019.4
20260508161749 57 270 7.0 14.8 0.00 0.00 0.00 38 1019.6
20260508161239 56 45 5.2 14.8 0.00 0.00 0.00 40 1019.7
20260508160730 57 225 3.5 17.4 0.00 0.00 0.00 40 1019.6
20260508160220 55 270 4.3 17.4 0.00 0.00 0.00 41 1019.5
20260508155708 55 248 9.6 17.4 0.00 0.00 0.00 42 1019.8
20260508155158 55 248 7.0 13.0 0.00 0.00 0.00 42 1020.1
20260508154649 55 0 4.3 17.4 0.00 0.00 0.00 43 1020.0
20260508154140 55 180 7.0 17.4 0.00 0.00 0.00 43 1020.0
20260508153628 55 270 4.3 17.4 0.00 0.00 0.00 43 1020.1
20260508153119 55 225 8.7 19.1 0.00 0.00 0.00 43 1020.0
20260508152608 54 203 7.8 19.1 0.00 0.00 0.00 44 1020.0
20260508152058 54 248 7.0 18.2 0.00 0.00 0.00 44 1020.4
20260508150528 54 270 9.6 18.2 0.00 0.00 0.00 44 1020.3
20260508150017 54 225 5.2 14.8 0.00 0.00 0.00 44 1020.4
20260508145510 53 225 7.8 17.4 0.00 0.00 0.00 45 1020.3
20260508144449 52 270 4.3 21.7 0.00 0.00 0.00 46 1020.4
20260508143936 53 248 6.1 19.1 0.00 0.00 0.00 46 1020.5
20260508143427 53 203 7.8 19.1 0.00 0.00 0.00 46 1020.3
20260508142917 53 203 3.5 17.4 0.00 0.00 0.00 46 1020.4
20260508141346 52 225 7.8 17.4 0.00 0.00 0.00 48 1020.3
20260508140836 52 293 3.5 17.4 0.00 0.00 0.00 48 1020.2
20260508140326 52 180 7.0 13.9 0.00 0.00 0.00 48 1020.5
20260508135818 52 248 4.3 13.9 0.00 0.00 0.00 48 1020.2
20260508135306 52 180 3.5 15.6 0.00 0.00 0.00 48 1020.2
20260508134756 51 180 5.2 15.6 0.00 0.00 0.00 48 1020.4
20260508134246 51 315 7.0 13.9 0.00 0.00 0.00 48 1020.1
20260508133736 51 270 7.0 15.6 0.00 0.00 0.00 49 1020.3
20260508133226 51 248 7.8 15.6 0.00 0.00 0.00 49 1020.1
20260508132715 51 270 2.6 18.2 0.00 0.00 0.00 49 1020.0
20260508132205 51 248 5.2 18.2 0.00 0.00 0.00 49 1020.1
20260508131655 51 225 3.5 14.8 0.00 0.00 0.00 49 1020.1
20260508131146 51 203 4.3 15.6 0.00 0.00 0.00 50 1019.9
20260508125615 51 203 3.5 14.8 0.00 0.00 0.00 51 1019.7
20260508124555 50 225 3.5 17.4 0.00 0.00 0.00 53 1019.8
20260508124045 50 203 7.8 17.4 0.00 0.00 0.00 53 1020.2
20260508123535 49 270 4.3 15.6 0.00 0.00 0.00 54 1020.1
20260508123024 49 180 3.5 19.1 0.00 0.00 0.00 55 1020.3
20260508122514 49 135 7.0 19.1 0.00 0.00 0.00 55 1020.2
20260508121455 49 315 4.3 14.8 0.00 0.00 0.00 56 1019.7
20260508120434 48 225 7.0 14.8 0.00 0.00 0.00 57 1019.8
20260508115923 48 45 2.6 14.8 0.00 0.00 0.00 58 1019.7
20260508115414 47 180 7.0 14.8 0.00 0.00 0.00 59 1019.7
20260508114355 47 203 4.3 13.0 0.00 0.00 0.00 60 1019.6
20260508112823 47 203 2.6 13.9 0.00 0.00 0.00 61 1019.4
20260508112314 47 270 5.2 11.3 0.00 0.00 0.00 60 1019.5
20260508111803 47 248 3.5 11.3 0.00 0.00 0.00 60 1019.5
20260508111254 47 270 3.5 13.9 0.00 0.00 0.00 60 1019.3
20260508110743 47 270 5.2 15.6 0.00 0.00 0.00 60 1019.2
20260508110232 47 338 5.2 15.6 0.00 0.00 0.00 59 1019.2
20260508105722 47 248 3.5 13.9 0.00 0.00 0.00 60 1019.2
20260508105212 47 270 7.8 17.4 0.00 0.00 0.00 59 1019.1
20260508104702 47 270 3.5 17.4 0.00 0.00 0.00 59 1019.1
20260508104152 47 225 4.3 14.8 0.00 0.00 0.00 59 1018.9
20260508103643 47 225 3.5 14.8 0.00 0.00 0.00 59 1019.1
20260508103132 47 293 3.5 12.2 0.00 0.00 0.00 59 1019.2
20260508102623 47 225 4.3 17.4 0.00 0.00 0.00 59 1018.9
20260508100541 47 338 5.2 9.6 0.00 0.00 0.00 59 1018.8
20260508100031 47 270 3.5 9.6 0.00 0.00 0.00 60 1018.6
20260508095011 47 90 3.5 9.6 0.00 0.00 0.00 59 1018.5
20260508094458 47 225 4.3 9.6 0.00 0.00 0.00 60 1018.3
20260508093950 46 248 3.5 9.6 0.00 0.00 0.00 61 1018.3
20260508093441 46 293 2.6 9.6 0.00 0.00 0.00 61 1018.2
20260508092420 46 225 3.5 12.2 0.00 0.00 0.00 60 1017.9
20260508091910 46 203 4.3 7.8 0.00 0.00 0.00 60 1018.0
20260508091400 46 225 3.5 9.6 0.00 0.00 0.00 60 1017.9
20260508090850 46 225 1.7 9.6 0.00 0.00 0.00 59 1017.9
20260508090340 46 225 4.3 11.3 0.00 0.00 0.00 59 1017.9
20260508085830 46 248 2.6 11.3 0.00 0.00 0.00 59 1017.9
20260508084809 46 293 2.6 9.6 0.00 0.00 0.00 59 1017.9
20260508084259 46 248 2.6 9.6 0.00 0.00 0.00 59 1017.9
20260508083750 46 225 1.7 7.8 0.00 0.00 0.00 59 1018.0
20260508083241 46 293 3.5 13.9 0.00 0.00 0.00 58 1017.9
20260508082729 46 225 3.5 13.9 0.00 0.00 0.00 58 1017.9
20260508081159 45 203 1.7 9.6 0.00 0.00 0.00 57 1018.0
20260508080138 45 248 1.7 7.8 0.00 0.00 0.00 57 1018.3
20260508075118 46 315 1.7 9.6 0.00 0.00 0.00 55 1018.0
20260508074611 46 248 2.6 7.8 0.00 0.00 0.00 55 1017.8
20260508074058 46 158 4.3 9.6 0.00 0.00 0.00 54 1018.1
20260508073548 46 225 3.5 11.3 0.00 0.00 0.00 54 1017.8
20260508073046 46 293 5.2 11.3 0.00 0.00 0.00 54 1017.8
20260508072528 46 180 3.5 11.3 0.00 0.00 0.00 54 1017.8
20260508071514 46 225 4.3 11.3 0.00 0.00 0.00 53 1017.9
20260508070957 46 248 3.5 11.3 0.00 0.00 0.00 53 1017.9
20260508070447 46 225 3.5 11.3 0.00 0.00 0.00 53 1017.9
20260508065427 46 248 3.5 9.6 0.00 0.00 0.00 54 1018.0
20260508064916 47 225 4.3 9.6 0.00 0.00 0.00 54 1018.1
20260508064407 47 248 5.2 12.2 0.00 0.00 0.00 53 1018.1
20260508063856 47 203 7.0 12.2 0.00 0.00 0.00 53 1018.2
20260508063343 47 135 0.9 0.0 0.00 0.00 0.00 54 1022.6
20260508063149 47 225 4.3 0.0 0.00 0.00 0.00 54 1018.2
20260508062558 47 225 5.2 13.0 0.00 0.01 0.00 55 1018.0
20260508062049 47 270 3.5 13.0 0.00 0.01 0.00 55 1018.1
20260508060519 47 248 3.5 12.2 0.00 0.01 0.00 60 1018.2
20260508060008 47 225 3.5 12.2 0.00 0.01 0.00 61 1018.4
20260508055458 47 225 2.6 11.3 0.00 0.01 0.00 62 1018.3
20260508054948 47 293 6.1 9.6 0.00 0.01 0.00 63 1018.3
20260508053929 48 248 3.5 11.3 0.00 0.01 0.00 65 1018.3
20260508053418 48 225 2.6 7.8 0.00 0.01 0.00 65 1018.3
20260508052908 48 225 3.5 9.6 0.00 0.01 0.00 65 1018.4
20260508052358 48 248 3.5 9.6 0.00 0.01 0.00 66 1018.2
20260508051847 48 225 4.3 12.2 0.00 0.01 0.00 65 1018.3
20260508050827 49 135 2.6 13.0 0.00 0.01 0.00 66 1018.3
20260508050317 49 270 3.5 9.6 0.00 0.01 0.00 68 1018.6
20260508045807 49 248 3.5 9.6 0.00 0.01 0.00 69 1018.6
20260508045257 49 248 2.6 12.2 0.00 0.01 0.00 71 1018.6
20260508044747 49 315 3.5 12.2 0.00 0.01 0.00 71 1018.6
20260508044237 49 270 4.3 11.3 0.00 0.01 0.00 72 1018.7
20260508043727 49 293 4.3 7.8 0.00 0.01 0.00 73 1018.4
20260508043216 48 248 2.6 7.0 0.00 0.01 0.00 77 1018.3
20260508042707 48 225 2.6 5.2 0.00 0.01 0.00 78 1018.4
20260508041646 49 248 1.7 6.1 0.00 0.01 0.00 79 1018.4
20260508041136 49 248 1.7 6.1 0.00 0.01 0.00 78 1018.3
20260508040626 49 315 2.6 6.1 0.00 0.01 0.00 78 1018.4
20260508035605 50 248 1.7 6.1 0.00 0.01 0.00 77 1018.1
20260508035055 50 225 1.7 9.6 0.00 0.01 0.00 76 1017.9
20260508034546 50 225 2.6 9.6 0.00 0.01 0.00 75 1017.9
20260508034035 50 203 1.7 7.0 0.00 0.01 0.00 76 1017.8
20260508033526 51 315 2.6 7.0 0.00 0.01 0.00 75 1017.9
20260508033015 51 225 2.6 7.8 0.00 0.01 0.00 75 1017.7
20260508032505 51 203 3.5 7.8 0.00 0.01 0.00 75 1017.6
20260508031955 51 180 2.6 6.1 0.00 0.01 0.00 75 1017.7
20260508030934 52 225 2.6 9.6 0.00 0.01 0.00 73 1017.8
20260508030425 52 270 3.5 7.8 0.00 0.01 0.00 72 1017.7
20260508025914 53 248 3.5 11.3 0.00 0.01 0.92 71 1017.7
20260508025405 53 315 5.2 11.3 0.00 0.01 0.92 70 1017.6
20260508024854 53 203 4.3 9.6 0.00 0.01 0.92 70 1017.4
20260508024344 53 293 4.3 9.6 0.00 0.01 0.92 70 1017.4
20260508023835 53 315 6.1 12.2 0.00 0.01 0.92 69 1017.4
20260508022815 53 225 3.5 9.6 0.00 0.01 0.92 71 1017.5
20260508021753 53 158 7.0 13.9 0.00 0.01 0.92 71 1017.3
20260508021244 53 248 3.5 13.9 0.00 0.01 0.92 71 1017.6
20260508020734 53 225 7.0 15.6 0.00 0.01 0.92 71 1017.7
20260508020224 53 248 5.2 15.6 0.00 0.01 0.92 70 1017.8
20260508015713 54 203 4.3 12.2 0.00 0.01 0.92 70 1017.8
20260508015204 54 180 3.5 12.2 0.00 0.01 0.92 70 1017.7
20260508013632 54 180 7.0 13.0 0.00 0.01 0.92 69 1017.7
20260508013124 54 248 5.2 12.2 0.00 0.01 0.92 69 1017.8
20260508012612 54 225 4.3 9.6 0.00 0.01 0.92 69 1017.8
20260508012102 54 203 2.6 9.6 0.00 0.01 0.92 69 1017.9
20260508011552 54 248 6.1 11.3 0.00 0.01 0.92 69 1017.8
20260508011043 54 225 6.1 11.3 0.00 0.01 0.92 69 1018.0
20260508010534 54 225 3.5 11.3 0.00 0.01 0.92 69 1017.9
20260508010022 54 180 3.5 9.6 0.00 0.01 0.92 70 1017.9
20260508005512 54 248 3.5 9.6 0.00 0.01 0.92 70 1018.1
20260508005006 54 203 3.5 13.0 0.00 0.01 0.92 71 1018.2
20260508003944 54 225 3.5 7.8 0.00 0.01 0.92 68 1018.2
20260508003431 54 225 1.7 9.6 0.00 0.01 0.92 69 1018.1
20260508002922 54 270 1.7 9.6 0.00 0.01 0.92 68 1018.2
20260508001902 55 248 5.2 11.3 0.00 0.01 0.92 68 1018.3
20260508001351 55 225 3.5 13.0 0.00 0.01 0.92 67 1018.3
20260508000334 55 293 6.1 17.4 0.00 0.01 0.92 67 1018.6
20260507235310 55 270 1.7 11.3 0.00 0.01 0.92 69 1018.7
20260507233725 56 203 2.6 13.0 0.00 0.01 0.92 68 1018.5
20260507233215 56 270 1.7 12.2 0.00 0.01 0.92 67 1018.6
20260507232706 56 225 3.5 12.2 0.00 0.01 0.92 67 1018.6
20260507232155 56 293 6.1 11.3 0.00 0.01 0.92 66 1018.5
20260507231646 56 225 3.5 9.6 0.00 0.01 0.92 66 1018.5
20260507231135 56 270 2.6 9.6 0.00 0.01 0.92 65 1018.2
20260507230115 56 293 2.6 13.0 0.00 0.01 0.92 66 1018.2
20260507225605 56 248 2.6 13.9 0.00 0.01 0.92 65 1018.1
20260507225055 56 203 1.7 13.9 0.00 0.01 0.92 65 1018.1
20260507224036 57 293 5.2 13.9 0.00 0.01 0.92 65 1017.9
20260507223524 57 225 3.5 9.6 0.00 0.01 0.92 66 1017.9
20260507223015 57 248 3.5 9.6 0.00 0.01 0.92 67 1017.6
20260507222505 57 0 1.7 6.1 0.00 0.01 0.92 68 1017.3
20260507221956 57 225 1.7 9.6 0.00 0.01 0.92 69 1016.9
20260507221444 56 203 3.5 9.6 0.00 0.01 0.92 69 1016.6
20260507220934 57 293 1.7 9.6 0.00 0.01 0.92 68 1016.5
20260507220425 57 225 3.5 7.0 0.00 0.01 0.92 69 1016.4
20260507215914 57 248 1.7 7.0 0.00 0.01 0.92 69 1016.5
20260507214854 57 248 1.7 7.0 0.00 0.01 0.92 68 1016.3
20260507214344 57 225 1.7 7.0 0.00 0.01 0.92 68 1016.1
20260507213834 57 180 1.7 6.1 0.00 0.01 0.92 68 1015.8
20260507213324 57 270 2.6 6.1 0.00 0.01 0.92 67 1016.0
20260507212814 57 0 2.6 7.8 0.00 0.01 0.92 67 1016.3
20260507212306 57 225 1.7 9.6 0.00 0.01 0.92 67 1016.3
20260507211752 57 203 0.9 9.6 0.00 0.01 0.92 67 1016.5
20260507210733 57 225 1.7 5.2 0.00 0.01 0.92 67 1016.4
20260507210222 57 270 2.6 7.8 0.00 0.01 0.92 67 1016.5
20260507205659 57 158 2.6 9.6 0.00 0.01 0.92 67 1016.1
20260507205202 57 113 3.5 9.6 0.00 0.01 0.92 67 1016.3
20260507204640 58 225 3.5 11.3 0.00 0.01 0.92 67 1016.4
20260507204128 58 225 5.2 11.3 0.00 0.01 0.92 66 1016.4
20260507202558 58 270 5.2 15.6 0.00 0.01 0.92 66 1016.7
20260507202047 58 225 3.5 15.6 0.00 0.01 0.92 67 1016.9
20260507201538 58 225 7.0 14.8 0.00 0.01 0.92 66 1016.7
20260507200008 58 225 5.2 13.0 0.00 0.01 0.92 66 1016.4
20260507195458 58 225 3.5 13.0 0.00 0.01 0.92 66 1016.0
20260507194438 58 180 3.5 12.2 0.00 0.01 0.92 66 1015.8
20260507193927 59 225 5.2 12.2 0.00 0.01 0.92 66 1015.6
20260507193417 59 270 5.2 12.2 0.00 0.01 0.92 65 1015.4
20260507192906 59 158 2.6 9.6 0.00 0.01 0.92 64 1015.4
20260507191847 59 113 3.5 9.6 0.00 0.01 0.92 65 1015.4
20260507191336 59 225 4.3 9.6 0.00 0.01 0.92 65 1014.8
20260507190828 59 270 3.5 9.6 0.00 0.01 0.92 64 1014.8
20260507190316 59 180 1.7 7.0 0.00 0.01 0.92 64 1014.5
20260507185807 59 248 1.7 14.8 0.00 0.01 0.92 63 1015.1
20260507185255 59 225 0.9 14.8 0.00 0.01 0.92 62 1015.3
20260507184746 59 225 2.6 13.9 0.00 0.01 0.92 61 1015.0
20260507184236 59 225 4.3 11.3 0.00 0.01 0.92 61 1015.2
20260507183727 60 248 1.7 14.8 0.00 0.01 0.92 60 1015.9
20260507183216 60 158 3.5 14.8 0.00 0.01 0.92 60 1015.6
20260507182713 60 225 1.7 9.6 0.00 0.01 0.92 61 1016.1
20260507182152 60 248 4.3 13.0 0.00 0.01 0.92 61 1016.2
20260507181642 60 203 1.7 13.0 0.00 0.01 0.92 61 1016.7
20260507181131 60 248 6.1 13.0 0.00 0.01 0.92 60 1016.7
20260507180625 60 248 4.3 13.9 0.00 0.01 0.92 61 1016.7